STARLINK-1821 (46718 NORAD) Tracking and Keplerian Element Data

This shows tracking and keplerian element data for the satellite.

Feedback or suggestion? Click here.




ElementValue
Catalog46718
NameSTARLINK-1821
Epoch Orbit733
Epoch Day336.25001157
Epoch Year2020
RAAN256.3753
Inclination53.0581
Eccentricity0.0001383
Argument of Perigee52.4372
Mean Anonmoly280.4408
Mean Motion15.26526342
Decay Rate-0.01064679
L11 46718U 20073BA 20336.25001157 -.01064679 00000-0 -43886-1 0 9998
L22 46718 53.0581 256.3753 0001383 52.4372 280.4408 15.26526342 7334

Live tracking and technical data element details for STARLINK-1821 (NORAD 46718). STARLINK-1821 can be tracked NOW for your location showing map with azimuth and elevation plus other details from your city location.

Track the satellite on the map from your city or location and see movement details for azimuth, elevation, latitude, longitude, range, height, and movement on the map or in text.







IsCatalogInMostPopularTable: catalog: 46718, numindb: 12
Update: records affected: 1



GetName: 46718 STARLINK-1821

Hit Count: updated at: Tue, 01 Dec 2020 21:31:57 GMT